Time,TemperatureF,DewpointF,PressureIn,WindDirection,WindDirectionDegrees,WindSpeedMPH,WindSpeedGustMPH,Humidity,HourlyPrecipIn,Conditions,Clouds,dailyrainin,SoftwareType,DateUTC
2013-01-21 00:00:00,21.9,5.7,28.91,West,266,5.8,8.3,49,0.00,,---,0.00,VWS V13.00,2013-01-21 05:00:00,
2013-01-21 00:02:00,21.9,5.7,28.91,WSW,257,5.8,6.3,49,0.00,,---,0.00,VWS V13.00,2013-01-21 05:02:00,
2013-01-21 00:04:00,21.9,5.7,28.91,West,272,4.9,6.3,49,0.00,,---,0.00,VWS V13.00,2013-01-21 05:04:00,
2013-01-21 00:09:00,21.9,5.7,28.91,West,278,4.0,7.6,49,0.00,,---,0.00,VWS V13.00,2013-01-21 05:09:00,
2013-01-21 00:14:00,21.9,5.2,28.91,WNW,292,6.3,8.3,48,0.00,,---,0.00,VWS V13.00,2013-01-21 05:14:00,
2013-01-21 00:19:00,21.9,5.7,28.91,West,271,4.0,8.3,49,0.00,,---,0.00,VWS V13.00,2013-01-21 05:19:00,
2013-01-21 00:24:00,21.9,5.7,28.91,WSW,250,8.3,8.7,49,0.00,,---,0.00,VWS V13.00,2013-01-21 05:24:00,
2013-01-21 00:29:00,21.9,5.7,28.91,WNW,301,5.4,8.7,49,0.00,,---,0.00,VWS V13.00,2013-01-21 05:29:00,
2013-01-21 00:34:00,21.9,5.2,28.91,WNW,289,4.0,8.7,48,0.00,,---,0.00,VWS V13.00,2013-01-21 05:34:00,
2013-01-21 00:39:00,21.9,5.2,28.91,West,268,5.4,8.7,48,0.00,,---,0.00,VWS V13.00,2013-01-21 05:39:00,
2013-01-21 00:44:00,21.9,5.2,28.88,WSW,254,5.8,6.3,48,0.00,,---,0.00,VWS V13.00,2013-01-21 05:44:00,
2013-01-21 00:49:00,21.9,5.2,28.88,WNW,289,3.6,6.3,48,0.00,,---,0.00,VWS V13.00,2013-01-21 05:49:00,
2013-01-21 00:54:00,21.9,5.2,28.88,West,280,8.1,9.2,48,0.00,,---,0.00,VWS V13.00,2013-01-21 05:54:00,
2013-01-21 00:59:00,21.9,5.2,28.88,West,279,6.3,9.2,48,0.00,,---,0.00,VWS V13.00,2013-01-21 05:59:00,
2013-01-21 01:04:00,21.9,5.2,28.88,WNW,297,5.8,8.1,48,0.00,,---,0.00,VWS V13.00,2013-01-21 06:04:00,
2013-01-21 01:09:00,21.9,5.2,28.88,WNW,298,3.1,8.1,48,0.00,,---,0.00,VWS V13.00,2013-01-21 06:09:00,
2013-01-21 01:14:00,21.9,5.2,28.88,WNW,289,5.4,8.1,48,0.00,,---,0.00,VWS V13.00,2013-01-21 06:14:00,
2013-01-21 01:19:00,21.9,5.2,28.88,West,279,2.2,8.1,48,0.00,,---,0.00,VWS V13.00,2013-01-21 06:19:00,
2013-01-21 01:25:00,21.9,5.7,28.88,West,259,2.7,3.1,49,0.00,,---,0.00,VWS V13.00,2013-01-21 06:25:00,
2013-01-21 01:30:00,21.9,5.2,28.88,WNW,286,3.6,5.8,48,0.00,,---,0.00,VWS V13.00,2013-01-21 06:30:00,
2013-01-21 01:35:00,21.7,5.1,28.88,WNW,299,7.6,7.6,48,0.00,,---,0.00,VWS V13.00,2013-01-21 06:35:00,
2013-01-21 01:40:00,21.7,5.1,28.88,West,271,4.0,4.0,48,0.00,,---,0.00,VWS V13.00,2013-01-21 06:40:00,
2013-01-21 01:45:00,21.7,5.5,28.88,West,275,4.0,8.1,49,0.00,,---,0.00,VWS V13.00,2013-01-21 06:45:00,
2013-01-21 01:50:00,21.7,5.5,28.88,WNW,294,3.6,8.1,49,0.00,,---,0.00,VWS V13.00,2013-01-21 06:50:00,
2013-01-21 01:55:00,21.7,5.5,28.88,WNW,283,4.0,8.1,49,0.00,,---,0.00,VWS V13.00,2013-01-21 06:55:00,
2013-01-21 02:00:00,21.7,5.5,28.88,WSW,258,5.4,5.8,49,0.00,,---,0.00,VWS V13.00,2013-01-21 07:00:00,
2013-01-21 02:05:00,21.7,5.1,28.88,WNW,292,6.7,8.7,48,0.00,,---,0.00,VWS V13.00,2013-01-21 07:05:00,
2013-01-21 02:10:00,21.7,4.6,28.88,West,272,8.1,9.6,47,0.00,,---,0.00,VWS V13.00,2013-01-21 07:10:00,
2013-01-21 02:15:00,21.6,4.5,28.88,WNW,290,8.7,12.8,47,0.00,,---,0.00,VWS V13.00,2013-01-21 07:15:00,
2013-01-21 02:20:00,21.7,4.6,28.88,West,279,4.0,4.0,47,0.00,,---,0.00,VWS V13.00,2013-01-21 07:20:00,
2013-01-21 02:25:00,21.7,4.6,28.88,WNW,299,5.4,6.7,47,0.00,,---,0.00,VWS V13.00,2013-01-21 07:25:00,
2013-01-21 02:31:00,21.6,4.5,28.88,WNW,295,8.1,9.6,47,0.00,,---,0.00,VWS V13.00,2013-01-21 07:31:00,
2013-01-21 02:36:00,21.6,4.5,28.88,West,261,5.8,9.6,47,0.00,,---,0.00,VWS V13.00,2013-01-21 07:36:00,
2013-01-21 02:41:00,21.6,4.5,28.88,WNW,283,4.0,5.8,47,0.00,,---,0.00,VWS V13.00,2013-01-21 07:41:00,
2013-01-21 02:46:00,21.6,4.9,28.88,WNW,295,3.6,6.3,48,0.00,,---,0.00,VWS V13.00,2013-01-21 07:46:00,
2013-01-21 02:51:00,21.6,4.9,28.88,WNW,292,3.6,6.3,48,0.00,,---,0.00,VWS V13.00,2013-01-21 07:51:00,
2013-01-21 02:56:00,21.6,4.9,28.88,West,264,3.6,6.3,48,0.00,,---,0.00,VWS V13.00,2013-01-21 07:56:00,
2013-01-21 03:01:00,21.4,4.8,28.88,WSW,258,4.0,4.9,48,0.00,,---,0.00,VWS V13.00,2013-01-21 08:01:00,
2013-01-21 03:06:00,21.6,5.4,28.88,West,263,4.0,5.8,49,0.00,,---,0.00,VWS V13.00,2013-01-21 08:06:00,
2013-01-21 03:12:00,21.4,5.2,28.88,WNW,293,3.6,5.8,49,0.00,,---,0.00,VWS V13.00,2013-01-21 08:12:00,
2013-01-21 03:17:00,21.4,5.2,28.88,WNW,286,4.9,6.3,49,0.00,,---,0.00,VWS V13.00,2013-01-21 08:17:00,
2013-01-21 03:22:00,21.4,5.6,28.88,West,281,4.9,4.9,50,0.00,,---,0.00,VWS V13.00,2013-01-21 08:22:00,
2013-01-21 03:27:00,21.2,5.9,28.85,WSW,257,5.4,6.7,51,0.00,,---,0.00,VWS V13.00,2013-01-21 08:27:00,
2013-01-21 03:33:00,21.2,6.3,28.85,West,269,4.9,8.1,52,0.00,,---,0.00,VWS V13.00,2013-01-21 08:33:00,
2013-01-21 03:38:00,21.2,6.8,28.85,West,265,6.3,8.1,53,0.00,,---,0.00,VWS V13.00,2013-01-21 08:38:00,
2013-01-21 03:43:00,21.2,6.8,28.85,West,275,4.0,6.3,53,0.00,,---,0.00,VWS V13.00,2013-01-21 08:43:00,
2013-01-21 03:48:00,21.2,6.8,28.85,West,261,2.2,7.2,53,0.00,,---,0.00,VWS V13.00,2013-01-21 08:48:00,
2013-01-21 03:53:00,21.2,7.2,28.85,WSW,251,4.9,7.2,54,0.00,,---,0.00,VWS V13.00,2013-01-21 08:53:00,
2013-01-21 03:58:00,21.0,7.0,28.85,WSW,252,4.9,7.2,54,0.00,,---,0.00,VWS V13.00,2013-01-21 08:58:00,
2013-01-21 04:03:00,21.0,7.0,28.85,West,259,5.8,5.8,54,0.00,,---,0.00,VWS V13.00,2013-01-21 09:03:00,
2013-01-21 04:08:00,21.0,7.4,28.85,West,280,4.0,7.6,55,0.00,,---,0.00,VWS V13.00,2013-01-21 09:08:00,
2013-01-21 04:13:00,20.8,7.2,28.85,West,270,4.9,7.6,55,0.00,,---,0.00,VWS V13.00,2013-01-21 09:13:00,
2013-01-21 04:18:00,20.8,6.8,28.85,WNW,287,8.7,8.7,54,0.00,,---,0.00,VWS V13.00,2013-01-21 09:18:00,
2013-01-21 04:23:00,20.8,6.8,28.85,WNW,294,3.6,7.6,54,0.00,,---,0.00,VWS V13.00,2013-01-21 09:23:00,
2013-01-21 04:28:00,20.8,7.2,28.85,West,272,5.4,8.1,55,0.00,,---,0.00,VWS V13.00,2013-01-21 09:28:00,
2013-01-21 04:33:00,20.7,7.1,28.85,West,270,6.3,8.1,55,0.00,,---,0.00,VWS V13.00,2013-01-21 09:33:00,
2013-01-21 04:38:00,20.7,7.5,28.85,West,275,7.2,8.1,56,0.00,,---,0.00,VWS V13.00,2013-01-21 09:38:00,
2013-01-21 04:43:00,20.7,7.8,28.85,WNW,287,5.8,6.3,57,0.00,,---,0.00,VWS V13.00,2013-01-21 09:43:00,
2013-01-21 04:48:00,20.7,8.2,28.85,WNW,284,3.6,6.3,58,0.00,,---,0.00,VWS V13.00,2013-01-21 09:48:00,
2013-01-21 04:54:00,20.5,8.4,28.85,WNW,283,4.9,6.3,59,0.00,,---,0.00,VWS V13.00,2013-01-21 09:54:00,
2013-01-21 04:59:00,20.5,8.8,28.85,WNW,292,4.0,6.3,60,0.00,,---,0.00,VWS V13.00,2013-01-21 09:59:00,
2013-01-21 05:04:00,20.3,8.6,28.85,West,272,3.6,5.8,60,0.00,,---,0.00,VWS V13.00,2013-01-21 10:04:00,
2013-01-21 05:09:00,20.3,8.6,28.85,WNW,294,3.1,6.3,60,0.00,,---,0.00,VWS V13.00,2013-01-21 10:09:00,
2013-01-21 05:14:00,20.3,8.6,28.85,WNW,287,4.0,6.3,60,0.00,,---,0.00,VWS V13.00,2013-01-21 10:14:00,
2013-01-21 05:19:00,20.5,9.2,28.85,West,275,3.1,6.3,61,0.00,,---,0.00,VWS V13.00,2013-01-21 10:19:00,
2013-01-21 05:24:00,20.3,9.0,28.85,WNW,284,3.1,6.3,61,0.00,,---,0.00,VWS V13.00,2013-01-21 10:24:00,
2013-01-21 05:29:00,20.3,9.4,28.85,WNW,287,4.0,6.3,62,0.00,,---,0.00,VWS V13.00,2013-01-21 10:29:00,
2013-01-21 05:34:00,20.3,9.4,28.85,WNW,296,3.1,6.3,62,0.00,,---,0.00,VWS V13.00,2013-01-21 10:34:00,
2013-01-21 05:39:00,20.3,9.7,28.85,West,264,3.1,6.3,63,0.00,,---,0.00,VWS V13.00,2013-01-21 10:39:00,
2013-01-21 05:44:00,20.3,10.1,28.82,WNW,286,3.1,4.0,64,0.00,,---,0.00,VWS V13.00,2013-01-21 10:44:00,
2013-01-21 05:49:00,20.5,10.2,28.82,West,281,2.7,4.0,64,0.00,,---,0.00,VWS V13.00,2013-01-21 10:49:00,
2013-01-21 05:54:00,20.3,10.1,28.82,WNW,283,3.1,5.4,64,0.00,,---,0.00,VWS V13.00,2013-01-21 10:54:00,
2013-01-21 05:59:00,20.3,10.4,28.82,WNW,291,4.0,5.4,65,0.00,,---,0.00,VWS V13.00,2013-01-21 10:59:00,
2013-01-21 06:04:00,20.3,10.4,28.82,WNW,295,3.1,6.7,65,0.00,,---,0.00,VWS V13.00,2013-01-21 11:04:00,
2013-01-21 06:09:00,20.3,10.8,28.82,West,268,3.6,6.7,66,0.00,,---,0.00,VWS V13.00,2013-01-21 11:09:00,
2013-01-21 06:14:00,20.3,10.8,28.82,West,280,4.9,6.7,66,0.00,,---,0.00,VWS V13.00,2013-01-21 11:14:00,
2013-01-21 06:20:00,20.3,11.4,28.82,West,264,3.6,6.7,68,0.00,,---,0.00,VWS V13.00,2013-01-21 11:20:00,
2013-01-21 06:25:00,20.3,11.4,28.82,WNW,285,3.1,5.4,68,0.00,,---,0.00,VWS V13.00,2013-01-21 11:25:00,
2013-01-21 06:30:00,20.3,11.4,28.82,West,281,2.7,5.4,68,0.00,,---,0.00,VWS V13.00,2013-01-21 11:30:00,
2013-01-21 06:35:00,20.3,11.8,28.82,WNW,286,3.1,6.3,69,0.00,,---,0.00,VWS V13.00,2013-01-21 11:35:00,
2013-01-21 06:40:00,20.3,12.1,28.82,West,279,4.9,6.3,70,0.00,,---,0.00,VWS V13.00,2013-01-21 11:40:00,
2013-01-21 06:45:00,20.3,12.1,28.82,West,272,3.6,5.4,70,0.00,,---,0.00,VWS V13.00,2013-01-21 11:45:00,
2013-01-21 06:50:00,20.3,12.4,28.82,WNW,284,2.7,5.4,71,0.00,,---,0.00,VWS V13.00,2013-01-21 11:50:00,
2013-01-21 06:55:00,20.3,12.7,28.82,WNW,290,2.7,5.4,72,0.00,,---,0.00,VWS V13.00,2013-01-21 11:55:00,
2013-01-21 07:00:00,20.1,12.6,28.82,West,272,2.7,2.7,72,0.00,,---,0.00,VWS V13.00,2013-01-21 12:00:00,
2013-01-21 07:05:00,20.3,13.0,28.82,WNW,287,2.7,4.0,73,0.00,,---,0.00,VWS V13.00,2013-01-21 12:05:00,
2013-01-21 07:10:00,20.1,12.9,28.82,WNW,285,3.1,4.0,73,0.00,,---,0.00,VWS V13.00,2013-01-21 12:10:00,
2013-01-21 07:15:00,20.1,13.2,28.82,WNW,292,2.2,4.0,74,0.00,,---,0.00,VWS V13.00,2013-01-21 12:15:00,
2013-01-21 07:20:00,20.3,13.4,28.82,WNW,292,0.0,2.2,74,0.00,,---,0.00,VWS V13.00,2013-01-21 12:20:00,
2013-01-21 07:25:00,20.3,13.7,28.82,WNW,292,0.0,2.7,75,0.00,,---,0.00,VWS V13.00,2013-01-21 12:25:00,
2013-01-21 07:31:00,20.3,13.7,28.82,WNW,292,0.0,2.7,75,0.00,,---,0.00,VWS V13.00,2013-01-21 12:31:00,
2013-01-21 07:35:00,20.1,13.5,28.82,WNW,291,0.0,3.6,75,0.00,,---,0.00,VWS V13.00,2013-01-21 12:35:00,
2013-01-21 07:40:00,20.3,14.0,28.82,WNW,291,0.0,0.0,76,0.00,,---,0.00,VWS V13.00,2013-01-21 12:40:00,
2013-01-21 07:45:00,20.3,14.0,28.82,WNW,291,0.0,2.7,76,0.00,,---,0.00,VWS V13.00,2013-01-21 12:45:00,
2013-01-21 07:51:00,20.3,14.0,28.82,WNW,291,0.0,2.7,76,0.00,,---,0.00,VWS V13.00,2013-01-21 12:51:00,
2013-01-21 07:56:00,20.3,14.3,28.82,WNW,291,0.0,2.7,77,0.00,,---,0.00,VWS V13.00,2013-01-21 12:56:00,
2013-01-21 08:01:00,20.3,14.3,28.82,WNW,291,0.0,0.0,77,0.00,,---,0.00,VWS V13.00,2013-01-21 13:01:00,
2013-01-21 08:06:00,20.3,14.3,28.82,WNW,291,0.0,0.0,77,0.00,,---,0.00,VWS V13.00,2013-01-21 13:06:00,
2013-01-21 08:11:00,20.3,14.3,28.82,WNW,291,0.0,0.0,77,0.00,,---,0.00,VWS V13.00,2013-01-21 13:11:00,
2013-01-21 08:16:00,20.3,14.6,28.82,WNW,291,0.0,0.0,78,0.00,,---,0.00,VWS V13.00,2013-01-21 13:16:00,
2013-01-21 08:21:00,20.3,14.3,28.82,WNW,291,0.0,0.0,77,0.00,,---,0.00,VWS V13.00,2013-01-21 13:21:00,
2013-01-21 08:26:00,20.3,14.6,28.82,WNW,291,0.0,0.0,78,0.00,,---,0.00,VWS V13.00,2013-01-21 13:26:00,
2013-01-21 08:31:00,20.3,14.6,28.82,WNW,291,0.0,0.0,78,0.00,,---,0.00,VWS V13.00,2013-01-21 13:31:00,
2013-01-21 08:36:00,20.3,14.6,28.82,WNW,291,0.0,0.0,78,0.00,,---,0.00,VWS V13.00,2013-01-21 13:36:00,
2013-01-21 08:41:00,20.5,14.7,28.79,WNW,291,0.0,0.0,78,0.00,,---,0.00,VWS V13.00,2013-01-21 13:41:00,
2013-01-21 08:46:00,20.3,14.6,28.79,WNW,291,0.0,0.0,78,0.00,,---,0.00,VWS V13.00,2013-01-21 13:46:00,
2013-01-21 08:51:00,20.3,14.6,28.79,WNW,291,0.0,0.0,78,0.00,,---,0.00,VWS V13.00,2013-01-21 13:51:00,
2013-01-21 08:56:00,20.5,14.7,28.82,WNW,291,0.0,0.0,78,0.00,,---,0.00,VWS V13.00,2013-01-21 13:56:00,
2013-01-21 09:02:00,20.7,15.2,28.82,WNW,291,0.0,0.0,79,0.00,,---,0.00,VWS V13.00,2013-01-21 14:02:00,
2013-01-21 09:07:00,20.7,15.2,28.82,WNW,291,0.0,0.0,79,0.00,,---,0.00,VWS V13.00,2013-01-21 14:07:00,
2013-01-21 09:12:00,20.8,15.4,28.79,WNW,291,0.0,0.0,79,0.00,,---,0.00,VWS V13.00,2013-01-21 14:12:00,
2013-01-21 09:17:00,20.8,15.7,28.79,WNW,291,0.0,2.2,80,0.00,,---,0.00,VWS V13.00,2013-01-21 14:17:00,
2013-01-21 09:22:00,20.7,15.5,28.79,WNW,291,0.0,0.0,80,0.00,,---,0.00,VWS V13.00,2013-01-21 14:22:00,
2013-01-21 09:27:00,20.8,15.4,28.79,West,273,0.0,4.0,79,0.00,,---,0.00,VWS V13.00,2013-01-21 14:27:00,
2013-01-21 09:32:00,21.0,15.2,28.79,West,273,0.0,4.0,78,0.00,,---,0.00,VWS V13.00,2013-01-21 14:32:00,
2013-01-21 09:37:00,21.0,15.2,28.79,West,273,0.0,4.0,78,0.00,,---,0.00,VWS V13.00,2013-01-21 14:37:00,
2013-01-21 09:42:00,21.0,15.5,28.79,West,273,0.0,0.0,79,0.00,,---,0.00,VWS V13.00,2013-01-21 14:42:00,
2013-01-21 09:47:00,21.2,15.7,28.79,West,273,0.0,0.0,79,0.00,,---,0.00,VWS V13.00,2013-01-21 14:47:00,
2013-01-21 09:52:00,21.2,15.4,28.79,West,270,3.1,4.5,78,0.00,,---,0.00,VWS V13.00,2013-01-21 14:52:00,
2013-01-21 09:57:00,21.2,15.4,28.79,West,270,3.1,4.5,78,0.00,,---,0.00,VWS V13.00,2013-01-21 14:57:00,
2013-01-21 10:03:00,21.0,14.9,28.79,West,271,3.6,4.9,77,0.00,,---,0.00,VWS V13.00,2013-01-21 15:03:00,
2013-01-21 10:08:00,21.0,14.9,28.79,WSW,255,5.8,5.8,77,0.00,,---,0.00,VWS V13.00,2013-01-21 15:08:00,
2013-01-21 10:13:00,21.2,15.1,28.79,WNW,284,3.1,5.8,77,0.00,,---,0.00,VWS V13.00,2013-01-21 15:13:00,
2013-01-21 10:18:00,21.0,14.9,28.79,WSW,258,3.6,8.3,77,0.00,,---,0.00,VWS V13.00,2013-01-21 15:18:00,
2013-01-21 10:23:00,21.2,15.4,28.79,WNW,289,5.4,5.4,78,0.00,,---,0.00,VWS V13.00,2013-01-21 15:23:00,
2013-01-21 10:28:00,21.2,15.1,28.79,West,264,4.0,5.4,77,0.00,,---,0.00,VWS V13.00,2013-01-21 15:28:00,
2013-01-21 10:33:00,21.4,15.3,28.79,West,272,3.6,5.4,77,0.00,,---,0.00,VWS V13.00,2013-01-21 15:33:00,
2013-01-21 10:38:00,21.0,14.9,28.79,West,262,3.1,5.8,77,0.00,,---,0.00,VWS V13.00,2013-01-21 15:38:00,
2013-01-21 10:43:00,21.4,15.3,28.79,West,273,4.0,4.9,77,0.00,,---,0.00,VWS V13.00,2013-01-21 15:43:00,
2013-01-21 10:48:00,21.4,15.3,28.79,West,280,5.4,6.3,77,0.00,,---,0.00,VWS V13.00,2013-01-21 15:48:00,
2013-01-21 10:54:00,21.2,15.4,28.79,West,280,5.4,6.3,78,0.00,,---,0.00,VWS V13.00,2013-01-21 15:54:00,
2013-01-21 10:59:00,21.6,16.1,28.76,WNW,298,3.1,6.3,79,0.00,,---,0.00,VWS V13.00,2013-01-21 15:59:00,
2013-01-21 11:04:00,21.7,16.5,28.76,WNW,299,0.0,3.1,80,0.00,,---,0.00,VWS V13.00,2013-01-21 16:04:00,
2013-01-21 11:09:00,21.7,16.5,28.76,WNW,300,0.0,4.0,80,0.00,,---,0.00,VWS V13.00,2013-01-21 16:09:00,
2013-01-21 11:14:00,21.7,16.8,28.76,WNW,295,2.2,4.0,81,0.00,,---,0.00,VWS V13.00,2013-01-21 16:14:00,
2013-01-21 11:19:00,21.6,16.6,28.76,WNW,294,3.1,4.0,81,0.00,,---,0.00,VWS V13.00,2013-01-21 16:19:00,
2013-01-21 11:24:00,21.7,16.8,28.76,WNW,294,2.7,3.6,81,0.00,,---,0.00,VWS V13.00,2013-01-21 16:24:00,
2013-01-21 11:29:00,21.7,16.8,28.76,WNW,291,2.2,4.0,81,0.00,,---,0.00,VWS V13.00,2013-01-21 16:29:00,
2013-01-21 11:34:00,21.9,17.0,28.76,WNW,289,3.1,4.9,81,0.00,,---,0.00,VWS V13.00,2013-01-21 16:34:00,
2013-01-21 11:40:00,21.6,16.4,28.76,WNW,288,2.7,4.9,80,0.00,,---,0.00,VWS V13.00,2013-01-21 16:40:00,
2013-01-21 11:45:00,21.9,16.7,28.76,WNW,283,2.2,4.0,80,0.00,,---,0.00,VWS V13.00,2013-01-21 16:45:00,
2013-01-21 11:50:00,21.7,16.5,28.76,WNW,288,0.0,4.0,80,0.00,,---,0.00,VWS V13.00,2013-01-21 16:50:00,
2013-01-21 11:55:00,21.2,16.0,28.73,NW,312,2.7,5.4,80,0.00,,---,0.00,VWS V13.00,2013-01-21 16:55:00,
2013-01-21 12:00:00,21.2,16.3,28.73,WNW,287,3.6,5.8,81,0.00,,---,0.00,VWS V13.00,2013-01-21 17:00:00,
2013-01-21 12:05:00,21.2,16.3,28.73,WNW,290,4.0,5.8,81,0.00,,---,0.00,VWS V13.00,2013-01-21 17:05:00,
2013-01-21 12:10:00,21.2,16.3,28.73,WNW,289,4.0,5.8,81,0.00,,---,0.00,VWS V13.00,2013-01-21 17:10:00,
2013-01-21 12:15:00,21.2,16.0,28.73,WNW,286,2.7,5.8,80,0.00,,---,0.00,VWS V13.00,2013-01-21 17:15:00,
2013-01-21 12:20:00,21.4,15.9,28.73,WNW,292,4.0,4.0,79,0.00,,---,0.00,VWS V13.00,2013-01-21 17:20:00,
2013-01-21 12:25:00,21.4,15.6,28.73,WNW,287,2.7,5.8,78,0.00,,---,0.00,VWS V13.00,2013-01-21 17:25:00,
2013-01-21 12:31:00,21.2,15.7,28.73,WSW,258,2.2,5.8,79,0.00,,---,0.00,VWS V13.00,2013-01-21 17:31:00,
2013-01-21 12:36:00,21.2,16.0,28.73,WNW,302,3.6,5.8,80,0.00,,---,0.00,VWS V13.00,2013-01-21 17:36:00,
2013-01-21 12:41:00,21.2,16.0,28.73,WNW,294,4.0,4.9,80,0.00,,---,0.00,VWS V13.00,2013-01-21 17:41:00,
2013-01-21 12:46:00,21.2,16.3,28.73,WNW,294,3.1,4.9,81,0.00,,---,0.00,VWS V13.00,2013-01-21 17:46:00,
2013-01-21 12:51:00,21.2,16.6,28.73,WNW,283,4.0,5.4,82,0.00,,---,0.00,VWS V13.00,2013-01-21 17:51:00,
2013-01-21 12:56:00,20.8,16.2,28.70,West,276,3.6,6.3,82,0.00,,---,0.00,VWS V13.00,2013-01-21 17:56:00,
2013-01-21 13:01:00,21.2,16.9,28.70,WNW,293,3.6,4.9,83,0.00,,---,0.00,VWS V13.00,2013-01-21 18:01:00,
2013-01-21 13:06:00,21.0,17.0,28.70,WSW,257,5.4,5.8,84,0.00,,---,0.00,VWS V13.00,2013-01-21 18:06:00,
2013-01-21 13:11:00,21.2,17.4,28.70,West,275,3.1,5.8,85,0.00,,---,0.00,VWS V13.00,2013-01-21 18:11:00,
2013-01-21 13:17:00,21.0,17.0,28.70,WNW,292,4.0,8.1,84,0.00,,---,0.00,VWS V13.00,2013-01-21 18:17:00,
2013-01-21 13:22:00,21.2,17.1,28.70,WNW,303,6.3,6.3,84,0.00,,---,0.00,VWS V13.00,2013-01-21 18:22:00,
2013-01-21 13:27:00,21.2,17.1,28.70,WNW,300,3.6,6.7,84,0.00,,---,0.00,VWS V13.00,2013-01-21 18:27:00,
2013-01-21 13:32:00,21.2,16.9,28.70,WNW,288,5.8,8.3,83,0.00,,---,0.00,VWS V13.00,2013-01-21 18:32:00,
2013-01-21 13:37:00,21.2,16.6,28.70,WNW,287,2.7,8.3,82,0.00,,---,0.00,VWS V13.00,2013-01-21 18:37:00,
2013-01-21 13:42:00,20.7,16.0,28.70,WSW,246,6.3,8.7,82,0.00,,---,0.00,VWS V13.00,2013-01-21 18:42:00,
2013-01-21 13:47:00,21.0,17.2,28.70,WSW,258,5.4,8.7,85,0.00,,---,0.00,VWS V13.00,2013-01-21 18:47:00,
2013-01-21 13:52:00,20.8,17.3,28.70,West,271,5.4,8.7,86,0.00,,---,0.00,VWS V13.00,2013-01-21 18:52:00,
2013-01-21 13:57:00,21.0,17.8,28.70,West,270,3.6,8.7,87,0.00,,---,0.00,VWS V13.00,2013-01-21 18:57:00,
2013-01-21 14:03:00,21.2,18.2,28.70,West,262,4.0,4.9,88,0.00,,---,0.00,VWS V13.00,2013-01-21 19:03:00,
2013-01-21 14:08:00,21.0,18.3,28.70,West,279,6.3,8.3,89,0.00,,---,0.00,VWS V13.00,2013-01-21 19:08:00,
2013-01-21 14:13:00,20.8,18.4,28.70,WNW,302,4.0,8.3,90,0.00,,---,0.00,VWS V13.00,2013-01-21 19:13:00,
2013-01-21 14:18:00,20.8,18.4,28.70,WSW,255,4.9,8.3,90,0.00,,---,0.00,VWS V13.00,2013-01-21 19:18:00,
2013-01-21 14:23:00,20.8,18.6,28.70,West,260,8.7,8.7,91,0.00,,---,0.00,VWS V13.00,2013-01-21 19:23:00,
2013-01-21 14:28:00,21.0,18.8,28.70,West,275,4.5,8.7,91,0.00,,---,0.00,VWS V13.00,2013-01-21 19:28:00,
2013-01-21 14:33:00,20.8,18.6,28.70,WSW,258,6.3,8.7,91,0.00,,---,0.00,VWS V13.00,2013-01-21 19:33:00,
2013-01-21 14:38:00,21.0,18.8,28.70,West,278,6.3,8.7,91,0.00,,---,0.00,VWS V13.00,2013-01-21 19:38:00,
2013-01-21 14:43:00,20.8,18.6,28.70,WSW,251,4.9,10.1,91,0.00,,---,0.00,VWS V13.00,2013-01-21 19:43:00,
2013-01-21 14:48:00,21.2,18.7,28.70,WNW,288,3.6,10.1,90,0.00,,---,0.00,VWS V13.00,2013-01-21 19:48:00,
2013-01-21 14:53:00,21.0,18.5,28.70,WSW,251,7.6,10.1,90,0.00,,---,0.00,VWS V13.00,2013-01-21 19:53:00,
2013-01-21 14:58:00,21.0,18.5,28.70,West,266,8.3,11.0,90,0.00,,---,0.00,VWS V13.00,2013-01-21 19:58:00,
2013-01-21 15:04:00,20.8,18.4,28.70,West,260,8.1,13.2,90,0.00,,---,0.00,VWS V13.00,2013-01-21 20:04:00,
2013-01-21 15:09:00,21.0,18.3,28.70,NW,304,5.8,13.2,89,0.00,,---,0.00,VWS V13.00,2013-01-21 20:09:00,
2013-01-21 15:14:00,21.6,17.8,28.73,SW,236,8.1,13.2,85,0.00,,---,0.00,VWS V13.00,2013-01-21 20:14:00,
2013-01-21 15:19:00,21.7,15.9,28.73,West,262,8.3,13.2,78,0.00,,---,0.00,VWS V13.00,2013-01-21 20:19:00,
2013-01-21 15:24:00,21.7,14.4,28.73,West,279,8.7,11.0,73,0.00,,---,0.00,VWS V13.00,2013-01-21 20:24:00,
2013-01-21 15:29:00,20.5,14.4,28.73,WNW,283,8.7,17.4,77,0.00,,---,0.00,VWS V13.00,2013-01-21 20:29:00,
2013-01-21 15:34:00,21.9,11.6,28.73,West,277,11.0,17.4,64,0.00,,---,0.00,VWS V13.00,2013-01-21 20:34:00,
2013-01-21 15:39:00,22.3,9.0,28.73,WSW,254,7.6,17.4,56,0.00,,---,0.00,VWS V13.00,2013-01-21 20:39:00,
2013-01-21 15:44:00,21.2,9.5,28.73,WNW,300,7.2,16.8,60,0.00,,---,0.00,VWS V13.00,2013-01-21 20:44:00,
2013-01-21 15:49:00,21.2,8.4,28.73,WNW,297,10.1,16.8,57,0.00,,---,0.00,VWS V13.00,2013-01-21 20:49:00,
2013-01-21 15:54:00,21.2,7.2,28.73,WNW,290,8.1,16.8,54,0.00,,---,0.00,VWS V13.00,2013-01-21 20:54:00,
2013-01-21 15:59:00,20.8,6.0,28.73,WNW,290,5.4,16.8,52,0.00,,---,0.00,VWS V13.00,2013-01-21 20:59:00,
2013-01-21 16:05:00,20.8,4.7,28.73,WNW,287,8.7,12.8,49,0.00,,---,0.00,VWS V13.00,2013-01-21 21:05:00,
2013-01-21 16:10:00,21.0,4.4,28.73,West,274,7.2,15.0,48,0.00,,---,0.00,VWS V13.00,2013-01-21 21:10:00,
2013-01-21 16:15:00,21.2,4.6,28.73,NW,304,8.1,15.0,48,0.00,,---,0.00,VWS V13.00,2013-01-21 21:15:00,
2013-01-21 16:20:00,21.0,4.9,28.73,West,262,10.5,12.3,49,0.00,,---,0.00,VWS V13.00,2013-01-21 21:20:00,
2013-01-21 16:25:00,20.8,5.6,28.73,WNW,293,8.1,12.8,51,0.00,,---,0.00,VWS V13.00,2013-01-21 21:25:00,
2013-01-21 16:30:00,21.0,5.3,28.73,WNW,292,6.3,13.6,50,0.00,,---,0.00,VWS V13.00,2013-01-21 21:30:00,
2013-01-21 16:35:00,21.2,4.6,28.73,WNW,287,8.1,18.3,48,0.00,,---,0.00,VWS V13.00,2013-01-21 21:35:00,
2013-01-21 16:40:00,21.2,3.7,28.73,West,267,12.3,18.8,46,0.00,,---,0.00,VWS V13.00,2013-01-21 21:40:00,
2013-01-21 16:45:00,21.2,4.1,28.73,WNW,287,5.8,18.8,47,0.00,,---,0.00,VWS V13.00,2013-01-21 21:45:00,
2013-01-21 16:50:00,19.4,7.8,28.73,WNW,287,8.1,18.8,60,0.00,,---,0.00,VWS V13.00,2013-01-21 21:50:00,
2013-01-21 16:55:00,19.6,8.3,28.76,WNW,286,8.7,18.8,61,0.00,,---,0.00,VWS V13.00,2013-01-21 21:55:00,
2013-01-21 17:00:00,19.6,8.0,28.76,WNW,293,8.1,14.1,60,0.00,,---,0.00,VWS V13.00,2013-01-21 22:00:00,
2013-01-21 17:05:00,19.2,9.4,28.76,West,267,7.2,15.9,65,0.00,,---,0.00,VWS V13.00,2013-01-21 22:05:00,
2013-01-21 17:10:00,19.2,9.4,28.76,WNW,292,8.3,15.9,65,0.00,,---,0.00,VWS V13.00,2013-01-21 22:10:00,
2013-01-21 17:16:00,19.4,9.9,28.76,West,274,7.6,15.9,66,0.00,,---,0.00,VWS V13.00,2013-01-21 22:16:00,
2013-01-21 17:21:00,18.7,10.5,28.76,West,275,7.2,9.2,70,0.00,,---,0.00,VWS V13.00,2013-01-21 22:21:00,
2013-01-21 17:26:00,18.3,12.6,28.76,WNW,290,10.5,13.2,78,0.00,,---,0.00,VWS V13.00,2013-01-21 22:26:00,
2013-01-21 17:31:00,18.3,11.1,28.76,West,275,14.5,16.8,73,0.00,,---,0.00,VWS V13.00,2013-01-21 22:31:00,
2013-01-21 17:36:00,18.7,7.1,28.76,WNW,285,12.3,16.8,60,0.00,,---,0.00,VWS V13.00,2013-01-21 22:36:00,
2013-01-21 17:41:00,18.5,4.6,28.76,West,280,13.2,13.2,54,0.00,,---,0.00,VWS V13.00,2013-01-21 22:41:00,
2013-01-21 17:46:00,18.3,4.5,28.76,WNW,299,5.8,13.2,54,0.00,,---,0.00,VWS V13.00,2013-01-21 22:46:00,
2013-01-21 17:51:00,18.5,5.0,28.76,WNW,292,8.3,13.2,55,0.00,,---,0.00,VWS V13.00,2013-01-21 22:51:00,
2013-01-21 17:56:00,18.3,4.5,28.79,WNW,286,8.7,13.2,54,0.00,,---,0.00,VWS V13.00,2013-01-21 22:56:00,
2013-01-21 18:01:00,18.0,3.7,28.79,West,265,17.4,17.4,53,0.00,,---,0.00,VWS V13.00,2013-01-21 23:01:00,
2013-01-21 18:06:00,17.8,3.6,28.79,WNW,286,8.1,24.2,53,0.00,,---,0.00,VWS V13.00,2013-01-21 23:06:00,
2013-01-21 18:11:00,17.8,2.3,28.79,NNW,333,12.8,24.2,50,0.00,,---,0.00,VWS V13.00,2013-01-21 23:11:00,
2013-01-21 18:17:00,17.8,2.3,28.79,West,273,17.0,24.2,50,0.00,,---,0.00,VWS V13.00,2013-01-21 23:17:00,
2013-01-21 18:22:00,17.8,2.3,28.79,West,271,8.7,17.0,50,0.00,,---,0.00,VWS V13.00,2013-01-21 23:22:00,
2013-01-21 18:27:00,17.6,2.6,28.79,WNW,288,7.6,17.0,51,0.00,,---,0.00,VWS V13.00,2013-01-21 23:27:00,
2013-01-21 18:32:00,17.2,2.2,28.79,NW,308,8.1,18.3,51,0.00,,---,0.00,VWS V13.00,2013-01-21 23:32:00,
2013-01-21 18:37:00,17.2,2.7,28.79,WNW,291,3.1,18.3,52,0.00,,---,0.00,VWS V13.00,2013-01-21 23:37:00,
2013-01-21 18:42:00,16.5,6.1,28.79,West,281,8.3,13.2,63,0.00,,---,0.00,VWS V13.00,2013-01-21 23:42:00,
2013-01-21 18:47:00,15.8,8.7,28.79,WNW,286,8.3,15.0,73,0.00,,---,0.00,VWS V13.00,2013-01-21 23:47:00,
2013-01-21 18:52:00,15.8,8.1,28.79,WNW,286,10.1,17.4,71,0.00,,---,0.00,VWS V13.00,2013-01-21 23:52:00,
2013-01-21 18:57:00,15.6,6.0,28.79,West,268,18.8,18.8,65,0.00,,---,0.00,VWS V13.00,2013-01-21 23:57:00,
2013-01-21 19:03:00,15.8,3.3,28.79,West,276,15.4,18.3,57,0.00,,---,0.00,VWS V13.00,2013-01-22 00:03:00,
2013-01-21 19:08:00,15.4,2.6,28.79,West,280,8.3,18.3,56,0.00,,---,0.00,VWS V13.00,2013-01-22 00:08:00,
2013-01-21 19:13:00,15.3,3.2,28.79,WNW,294,8.3,18.3,58,0.00,,---,0.00,VWS V13.00,2013-01-22 00:13:00,
2013-01-21 19:18:00,15.1,2.6,28.79,WNW,286,9.6,18.3,57,0.00,,---,0.00,VWS V13.00,2013-01-22 00:18:00,
2013-01-21 19:23:00,14.7,1.1,28.79,WNW,288,9.2,17.0,54,0.00,,---,0.00,VWS V13.00,2013-01-22 00:23:00,
2013-01-21 19:28:00,14.7,-0.5,28.79,WNW,295,8.7,17.0,50,0.00,,---,0.00,VWS V13.00,2013-01-22 00:28:00,
2013-01-21 19:33:00,14.4,-1.7,28.79,West,279,5.4,19.2,48,0.00,,---,0.00,VWS V13.00,2013-01-22 00:33:00,
2013-01-21 19:38:00,14.4,-0.4,28.79,WNW,287,11.0,19.2,51,0.00,,---,0.00,VWS V13.00,2013-01-22 00:38:00,
2013-01-21 19:43:00,14.2,-2.8,28.79,WNW,286,15.0,15.9,46,0.00,,---,0.00,VWS V13.00,2013-01-22 00:43:00,
2013-01-21 19:48:00,14.0,-2.5,28.79,West,276,8.7,15.9,47,0.00,,---,0.00,VWS V13.00,2013-01-22 00:48:00,
2013-01-21 19:54:00,13.6,-2.8,28.79,West,278,6.7,15.9,47,0.00,,---,0.00,VWS V13.00,2013-01-22 00:54:00,
2013-01-21 19:59:00,13.6,-2.8,28.82,WNW,288,9.2,15.9,47,0.00,,---,0.00,VWS V13.00,2013-01-22 00:59:00,
2013-01-21 20:04:00,13.5,-3.0,28.82,WNW,288,10.1,15.4,47,0.00,,---,0.00,VWS V13.00,2013-01-22 01:04:00,
2013-01-21 20:09:00,13.5,-3.0,28.82,West,265,10.5,15.4,47,0.00,,---,0.00,VWS V13.00,2013-01-22 01:09:00,
2013-01-21 20:14:00,13.5,-3.0,28.82,WNW,297,11.9,17.4,47,0.00,,---,0.00,VWS V13.00,2013-01-22 01:14:00,
2013-01-21 20:19:00,13.3,-3.2,28.82,WSW,244,5.4,17.4,47,0.00,,---,0.00,VWS V13.00,2013-01-22 01:19:00,
2013-01-21 20:24:00,13.5,-3.0,28.82,WNW,283,14.1,15.4,47,0.00,,---,0.00,VWS V13.00,2013-01-22 01:24:00,
2013-01-21 20:29:00,12.7,-3.7,28.82,West,265,6.3,15.4,47,0.00,,---,0.00,VWS V13.00,2013-01-22 01:29:00,
2013-01-21 20:34:00,13.3,-3.2,28.82,NW,304,10.5,15.4,47,0.00,,---,0.00,VWS V13.00,2013-01-22 01:34:00,
2013-01-21 20:39:00,12.9,-3.5,28.82,West,273,4.0,15.4,47,0.00,,---,0.00,VWS V13.00,2013-01-22 01:39:00,
2013-01-21 20:44:00,12.7,-3.7,28.82,WSW,245,6.3,15.4,47,0.00,,---,0.00,VWS V13.00,2013-01-22 01:44:00,
2013-01-21 20:50:00,12.9,-3.5,28.82,WNW,292,8.3,15.4,47,0.00,,---,0.00,VWS V13.00,2013-01-22 01:50:00,
2013-01-21 20:55:00,12.7,-3.7,28.79,WSW,257,8.1,15.4,47,0.00,,---,0.00,VWS V13.00,2013-01-22 01:55:00,
2013-01-21 21:00:00,12.9,-3.5,28.79,West,276,10.1,10.1,47,0.00,,---,0.00,VWS V13.00,2013-01-22 02:00:00,
2013-01-21 21:05:00,12.6,-3.8,28.79,West,277,5.4,13.2,47,0.00,,---,0.00,VWS V13.00,2013-01-22 02:05:00,
2013-01-21 21:10:00,12.0,-4.3,28.82,WNW,284,6.3,13.2,47,0.00,,---,0.00,VWS V13.00,2013-01-22 02:10:00,
2013-01-21 21:15:00,12.6,-3.8,28.82,WNW,288,11.0,13.2,47,0.00,,---,0.00,VWS V13.00,2013-01-22 02:15:00,
2013-01-21 21:20:00,12.4,-4.0,28.82,WNW,290,13.2,13.2,47,0.00,,---,0.00,VWS V13.00,2013-01-22 02:20:00,
2013-01-21 21:25:00,12.4,-4.0,28.82,West,272,11.0,13.2,47,0.00,,---,0.00,VWS V13.00,2013-01-22 02:25:00,
2013-01-21 21:31:00,12.2,-4.2,28.82,WNW,293,12.3,16.3,47,0.00,,---,0.00,VWS V13.00,2013-01-22 02:31:00,
2013-01-21 21:36:00,12.2,-4.2,28.82,WNW,286,11.0,16.3,47,0.00,,---,0.00,VWS V13.00,2013-01-22 02:36:00,
2013-01-21 21:41:00,12.0,-4.3,28.82,West,263,5.8,9.2,47,0.00,,---,0.00,VWS V13.00,2013-01-22 02:41:00,
2013-01-21 21:46:00,12.0,-4.3,28.82,WNW,289,8.3,12.3,47,0.00,,---,0.00,VWS V13.00,2013-01-22 02:46:00,
2013-01-21 21:51:00,12.0,-4.3,28.82,WNW,288,10.1,13.6,47,0.00,,---,0.00,VWS V13.00,2013-01-22 02:51:00,
2013-01-21 21:56:00,11.8,-4.5,28.82,WNW,286,5.8,13.6,47,0.00,,---,0.00,VWS V13.00,2013-01-22 02:56:00,
2013-01-21 22:01:00,11.7,-4.7,28.82,WNW,285,10.1,11.0,47,0.00,,---,0.00,VWS V13.00,2013-01-22 03:01:00,
2013-01-21 22:06:00,11.8,-4.5,28.82,West,260,8.7,11.4,47,0.00,,---,0.00,VWS V13.00,2013-01-22 03:06:00,
2013-01-21 22:12:00,11.7,-4.7,28.82,West,276,7.6,11.4,47,0.00,,---,0.00,VWS V13.00,2013-01-22 03:12:00,
2013-01-21 22:17:00,11.3,-5.0,28.82,West,279,6.3,11.4,47,0.00,,---,0.00,VWS V13.00,2013-01-22 03:17:00,
2013-01-21 22:22:00,11.3,-5.0,28.82,West,262,8.3,8.3,47,0.00,,---,0.00,VWS V13.00,2013-01-22 03:22:00,
2013-01-21 22:27:00,11.5,-4.8,28.82,West,274,6.3,12.3,47,0.00,,---,0.00,VWS V13.00,2013-01-22 03:27:00,
2013-01-21 22:32:00,11.7,-4.7,28.82,West,278,8.3,14.5,47,0.00,,---,0.00,VWS V13.00,2013-01-22 03:32:00,
2013-01-21 22:37:00,11.3,-5.0,28.82,WNW,284,10.5,14.5,47,0.00,,---,0.00,VWS V13.00,2013-01-22 03:37:00,
2013-01-21 22:42:00,11.7,-4.7,28.82,WNW,302,12.3,15.4,47,0.00,,---,0.00,VWS V13.00,2013-01-22 03:42:00,
2013-01-21 22:47:00,11.7,-4.7,28.82,WNW,292,8.7,15.4,47,0.00,,---,0.00,VWS V13.00,2013-01-22 03:47:00,
2013-01-21 22:52:00,11.3,-5.0,28.82,WNW,283,6.3,15.4,47,0.00,,---,0.00,VWS V13.00,2013-01-22 03:52:00,
2013-01-21 22:57:00,11.5,-4.8,28.82,WNW,290,14.1,15.4,47,0.00,,---,0.00,VWS V13.00,2013-01-22 03:57:00,
2013-01-21 23:03:00,11.5,-4.8,28.82,WSW,251,11.0,13.2,47,0.00,,---,0.00,VWS V13.00,2013-01-22 04:03:00,
2013-01-21 23:08:00,11.3,-5.0,28.82,West,277,6.3,13.2,47,0.00,,---,0.00,VWS V13.00,2013-01-22 04:08:00,
2013-01-21 23:13:00,11.1,-5.2,28.82,WNW,287,7.6,13.2,47,0.00,,---,0.00,VWS V13.00,2013-01-22 04:13:00,
2013-01-21 23:18:00,11.3,-5.0,28.82,WNW,293,7.2,13.2,47,0.00,,---,0.00,VWS V13.00,2013-01-22 04:18:00,
2013-01-21 23:23:00,11.3,-5.0,28.82,WNW,282,7.6,10.5,47,0.00,,---,0.00,VWS V13.00,2013-01-22 04:23:00,
2013-01-21 23:28:00,11.1,-5.2,28.82,West,277,7.6,12.3,47,0.00,,---,0.00,VWS V13.00,2013-01-22 04:28:00,
2013-01-21 23:33:00,11.1,-5.2,28.82,West,272,8.3,12.3,47,0.00,,---,0.00,VWS V13.00,2013-01-22 04:33:00,
2013-01-21 23:38:00,11.1,-5.2,28.82,WNW,283,6.3,15.0,47,0.00,,---,0.00,VWS V13.00,2013-01-22 04:38:00,
2013-01-21 23:43:00,11.1,-5.2,28.85,West,281,10.5,13.6,47,0.00,,---,0.00,VWS V13.00,2013-01-22 04:43:00,
2013-01-21 23:49:00,10.9,-5.3,28.85,WSW,252,8.7,17.0,47,0.00,,---,0.00,VWS V13.00,2013-01-22 04:49:00,
2013-01-21 23:54:00,10.9,-5.3,28.85,WNW,298,10.5,17.0,47,0.00,,---,0.00,VWS V13.00,2013-01-22 04:54:00,
2013-01-21 23:59:00,10.8,-5.5,28.85,WNW,302,13.2,17.0,47,0.00,,---,0.00,VWS V13.00,2013-01-22 04:59:00,